Regional Weather Roundup
Issued by NWS Newport/Morehead, NC

Current Version | Previous Version | Text Only | Print | Product List | Glossary On
Versions: 1 2 3 4 5 6 7 8 9 10 11 12 13 14 15 16 17 18 19 20 21 22 23 24 25 26 27 28 29 30 31 32 33 34 35 36 37 38 39 40 41
000
ASUS42 KMHX 171114
RWRMHX
WEATHER ROUNDUP FOR EASTERN NORTH CAROLINA
NATIONAL WEATHER SERVICE NEWPORT/MOREHEAD CITY NC
700 AM EDT THU AUG 17 2017

NOTE: "FAIR" INDICATES FEW OR NO CLOUDS BELOW 12,000 FEET
WITH NO SIGNIFICANT WEATHER AND/OR OBSTRUCTIONS TO VISIBILITY

NCZ015>017-031-032-045>047-102-103-171200-
NORTH COAST

CITY           SKY/WX    TMP DP  RH WIND       PRES   REMARKS
EDENTON        MOCLDY    73  70  93 CALM      30.04R
ELIZABETH CITY   N/A     70  70 100 CALM      30.04R FOG
KITTY HAWK     SUNNY     72  72 100 CALM      30.03R FOG
MANTEO         CLEAR     71  70  99 CALM      30.04S

$$

NCZ045>047-081-094-103-104-171200-
CENTRAL COAST

CITY           SKY/WX    TMP DP  RH WIND       PRES   REMARKS
FRISCO         CLEAR     73  72  96 CALM      30.04R

$$

NCZ095-097-098-100-101-171200-
SOUTHERN COAST

CITY           SKY/WX    TMP DP  RH WIND       PRES   REMARKS
BEAUFORT       CLEAR     75  75 100 CALM      30.03S
CEDAR ISLAND   NOT AVBL
JACKSONVILLE   PTCLDY    77  77 100 CALM      30.02R
PINEY ISLAND   SUNNY    N/A N/A N/A CALM      30.03
WILMINGTON     CLEAR     75  74  96 CALM      30.02R


$$

NCZ011>013-027>030-043-044-078>080-089-090>093-098-171200-
COASTAL PLAIN

CITY           SKY/WX    TMP DP  RH WIND       PRES   REMARKS
AHOSKIE        FOG       71  71  99 CALM      30.04R VSB<1/4
CLINTON          N/A     75  75 100 CALM      30.03R
ELIZABETHTOWN  NOT AVBL
GOLDSBORO      NOT AVBL
GREENVILLE     PTCLDY    77  77 100 CALM      30.05R
HAVELOCK       CLEAR     74  73  97 SE7       30.04R FOG
KENANSVILLE    FOG       75  75 100 S3        30.03R VSB 1
KINSTON        FOG       75  75 100 CALM      30.04R VSB 1/4
NEW BERN       CLEAR     76  76 100 CALM      30.04R FOG
RICHLANDS      CLEAR     75  74  96 CALM      30.03R FOG
ROCKY MOUNT    FOG       74  74 100 CALM      30.03R VSB<1/4
WASHINGTON     PTCLDY    74  73  97 E3        30.03S FOG
WHITEVILLE     FOG       76  75  97 CALM      30.01R VSB 1/4

$$

AMZ130-135-150-152-154-156-158-170-250-252-270-ANZ085-086-088-633-658-670-171200-
MARINE OBSERVATIONS

STATION/POSITION TIME  TEMP    WIND        PRES    WAVE   SWELL
                       AIR SEA DIR/SP/G            HT/PER HT/PER
                 (UTC) (F)     (DEG/KT/KT) (MB)    (FT/S) (FT/S)
CHESAPEAKE LIGHT NOT AVBL
64 E VA BEACH    1050   76 76   CALM  /  2 1017.6    3/ 8   3/ 8
DUCK             1048   76 79  120/  3/  4 1016.7
2 E DUCK         1030      78                N/A     2/ 8
OREGON INLET     1042   75 82  350/  3/  4 1017.0
13E OREGON INLT  1048      79                N/A     2/ 8   2/ 8
HATTERAS CG      1048   79 83   50/  2/  3 1017.0
DIAMOND BUOY     1050   79 82  360/  8/  8 1016.9    2/ 9   2/ 9
CAPE LOOKOUT     1100   80      70/  4/  5 1016.7
BEAUFORT LAB     1048   78 81   70/  1/  3 1016.3
30 SE NEW RVR IN 1008   79 83   90/  4/  6 1016.7
30 SE NEW RVR IN 1043      83                N/A     2/ 7
27 SE WRIGHTSVLE 1008   82 83  120/  6/  8 1016.3
5 SE WRIGHTSVLE  1008   82 83  150/  4/ 10 1016.1
225 S CAPE HAT   1050   84 84  250/  8/ 10 1017.3    3/ 6   3/ 6
41 SE CHARLESTON 1100   84 83  240/  6/  8 1016.3

$$




USA.gov is the U.S. government's official web portal to all federal, state and local government web resources and services.